GEFSMA_500_meanwind_126.txt.gz
Wind_Speed
11 10 9 7 6 6 5 4 4 4 3 3 3 3 3 2 2 2 3 3 3 3 3 4 4 5 5 6 6 7 7 7 7 7 6 6 6 6 7 6 6 6 5
12 11 9 8 7 7 6 5 5 4 3 3 3 3 3 2 2 2 2 2 2 2 3 3 3 4 5 6 6 7 7 8 8 8 8 7 7 7 7 8 8 8 7
13 12 10 9 8 7 6 5 5 5 4 4 4 3 2 2 2 2 2 2 1 1 2 2 3 3 3 4 5 7 7 7 8 8 9 9 8 8 8 8 9 9 9
15 13 12 10 9 8 7 6 5 5 5 4 4 3 3 2 2 2 2 2 2 2 2 2 3 3 3 3 3 4 6 6 7 8 8 9 9 8 8 9 10 10 10
15 14 13 11 10 9 8 7 6 6 5 5 5 4 3 3 3 2 3 2 2 2 1 1 1 2 2 2 3 4 4 5 6 6 7 7 8 8 9 9 9 10 10
16 15 14 13 11 10 9 8 7 6 6 6 5 4 3 3 3 3 3 3 2 1 1 1 1 1 1 2 2 3 4 4 4 5 5 6 7 8 8 8 9 9 9
16 16 14 13 12 11 10 9 8 7 6 6 6 5 5 4 4 4 3 3 2 2 2 2 1 1 1 2 3 3 4 4 4 4 5 6 7 8 9 9 9 9 10
17 16 16 15 13 12 11 10 9 8 7 7 6 6 5 5 5 5 4 4 3 3 3 3 3 3 3 3 3 4 4 4 4 4 5 6 6 7 8 9 10 10 11
18 18 17 16 14 13 12 11 10 9 9 8 8 7 6 6 6 6 6 5 5 5 5 5 5 5 5 5 5 5 5 5 6 6 6 7 7 7 8 8 9 10 11
18 19 18 17 16 15 13 12 11 11 11 10 9 9 8 8 7 7 7 7 7 7 7 7 7 7 8 8 8 8 8 8 8 8 8 9 9 10 10 10 10 11 12
19 19 18 18 17 16 15 14 13 13 12 12 11 11 10 10 9 9 8 8 9 9 9 9 9 10 10 10 10 10 11 11 11 11 11 12 12 12 12 13 13 14 14
20 20 19 19 19 18 17 16 15 14 14 13 13 12 12 12 11 11 10 10 10 11 11 11 12 12 12 13 13 13 13 14 14 14 15 15 15 16 16 17 17 17 18
20 20 20 19 19 19 18 17 16 16 16 15 15 15 14 14 14 14 13 13 13 13 14 14 14 14 15 15 16 16 16 17 17 17 18 18 19 19 20 21 21 22 22
19 20 20 20 20 20 19 18 18 18 17 17 17 17 17 17 17 16 16 16 16 16 16 16 17 17 17 18 18 19 19 20 20 21 21 22 23 23 24 24 25 26 26
20 20 20 20 21 21 21 20 19 19 18 18 18 18 19 19 19 19 18 18 19 19 19 19 20 20 20 21 21 22 23 23 23 24 25 26 26 27 28 28 28 29 29
20 19 21 21 22 22 22 21 21 20 20 20 20 20 20 20 21 21 21 21 22 22 22 22 22 22 23 24 25 26 26 27 27 28 29 29 30 31 31 32 32 33 33
21 21 21 22 22 23 23 22 22 21 21 21 21 21 21 22 22 23 24 24 24 25 25 25 26 26 27 27 28 29 29 30 31 31 32 33 34 34 35 36 36 37 37
20 21 22 22 22 23 23 23 23 22 22 22 23 23 23 24 24 25 25 26 26 26 27 27 28 28 29 30 31 32 32 33 34 35 36 36 37 38 39 39 40 41 41
20 21 22 22 22 21 22 22 23 23 23 24 24 25 24 24 25 26 27 27 28 29 29 29 30 31 31 32 34 35 36 37 38 38 39 40 41 42 42 43 43 44 44
18 20 21 21 21 21 21 22 22 23 24 25 25 25 25 26 26 27 28 29 29 30 31 32 33 33 34 35 36 37 39 40 40 41 42 43 44 45 46 46 47 47 48
17 19 20 21 21 21 21 22 22 23 24 26 27 27 27 27 28 29 30 31 31 31 32 34 35 35 36 38 39 40 41 42 43 44 45 47 47 48 49 49 50 51 52
17 18 19 20 21 21 22 22 23 24 25 25 26 27 27 27 29 30 31 32 34 34 34 36 37 38 39 40 41 42 43 45 47 47 49 50 51 52 52 53 54 55 56
18 19 19 20 20 21 22 23 24 24 25 25 27 28 29 30 32 32 32 33 35 36 37 38 40 40 41 42 44 45 46 48 49 51 51 52 53 54 55 56 57 58 58
21 21 21 22 23 23 23 24 24 25 25 26 28 29 30 31 32 32 33 34 35 37 38 41 42 42 43 45 46 48 48 49 51 52 53 54 56 57 58 59 59 60 61
21 22 22 23 24 25 25 26 27 28 28 28 28 30 31 32 33 33 35 36 37 38 40 41 42 44 45 46 48 49 51 52 53 55 56 57 58 59 59 60 61 62 62
22 23 24 24 24 25 26 26 27 29 29 29 30 31 32 33 34 35 37 39 40 41 42 43 44 46 47 49 50 51 52 54 55 56 57 58 59 60 60 61 62 62 63

GEFSMA_500_meanwind_132.txt.gz
Wind_Speed
10 8 7 7 7 6 6 6 5 5 4 4 3 2 3 3 3 1 2 2 1 1 2 2 3 4 5 5 5 5 5 5 6 6 6 5 5 5 5 5 5 5 5
11 9 8 7 7 7 6 5 5 4 4 4 3 2 2 2 2 2 1 2 2 1 2 2 3 4 4 4 4 5 5 6 6 6 7 6 6 6 5 6 6 6 6
11 10 9 8 7 7 6 5 5 4 4 4 3 3 3 3 2 2 1 1 1 1 2 2 2 3 2 2 3 4 4 5 6 6 7 7 7 7 7 7 7 7 7
12 11 10 9 8 7 6 6 5 4 4 4 3 3 3 3 2 2 1 1 1 1 1 1 2 2 1 1 1 2 3 4 5 5 5 6 6 7 7 7 7 7 7
13 12 11 10 9 8 7 6 5 5 4 5 4 4 3 3 3 2 1 1 1 1 1 1 1 1 1 1 1 1 2 3 4 5 5 5 5 5 6 7 7 7 7
14 13 12 11 10 10 8 7 6 5 5 6 5 5 4 3 3 3 2 2 1 1 1 1 1 1 1 1 1 2 2 3 3 4 4 4 5 5 5 5 6 7 7
14 13 13 12 11 11 10 9 8 7 7 6 6 5 5 5 4 3 3 2 2 1 1 1 1 1 2 1 2 2 3 3 4 4 4 3 4 5 6 6 6 7 7
14 14 13 13 12 12 11 10 9 8 8 7 7 7 6 5 5 5 4 4 3 3 3 3 3 3 3 3 3 4 4 5 5 5 4 4 5 5 6 7 7 7 8
15 15 14 14 13 12 12 11 10 10 9 8 8 7 7 6 6 6 6 5 5 5 5 5 5 5 5 5 6 6 6 6 6 6 6 6 7 7 7 8 8 9 9
16 16 15 15 14 14 13 12 12 11 11 10 10 9 9 8 8 8 7 7 7 7 7 7 7 7 7 8 8 9 9 8 8 8 8 9 9 10 10 11 11 11 12
15 16 16 16 16 15 14 14 14 13 12 12 11 11 10 10 9 9 9 9 9 9 9 10 10 10 10 10 11 11 11 11 11 11 11 12 12 13 13 14 14 15 15
15 15 16 16 17 17 16 16 15 15 14 13 13 13 12 12 12 12 11 11 11 11 11 12 12 12 12 12 13 13 13 13 13 14 14 15 16 16 17 17 18 18 18
15 16 16 16 17 18 18 17 16 16 15 15 14 14 14 14 14 13 13 13 13 14 14 14 15 15 15 15 15 15 15 16 16 17 18 18 19 19 20 20 21 22 22
16 17 17 16 17 18 19 19 18 18 17 16 16 16 16 16 16 16 16 16 16 16 16 16 17 17 18 18 18 18 18 19 20 20 21 21 22 23 23 24 24 25 26
16 17 18 17 18 20 20 20 20 20 19 18 18 18 18 18 18 19 19 19 19 19 19 19 20 20 21 21 21 22 21 22 23 23 24 25 25 26 27 27 28 28 29
15 16 17 18 19 20 21 21 21 21 21 21 21 20 21 21 20 21 21 21 21 22 22 23 23 23 23 24 24 24 24 25 26 27 28 28 29 30 30 31 31 32 32
15 16 17 18 19 21 21 22 22 23 23 22 22 22 22 22 22 22 22 23 23 23 24 25 25 25 26 27 28 28 28 28 30 31 31 32 32 33 33 34 35 35 36
17 18 18 19 19 20 22 22 22 23 23 23 22 23 23 23 23 23 23 24 25 25 25 25 26 27 28 29 30 31 31 31 32 33 34 35 35 36 37 37 38 38 39
18 18 18 18 19 20 21 20 21 21 21 22 22 23 24 25 25 25 25 25 25 26 26 28 29 29 30 31 32 32 33 34 35 35 36 37 38 39 40 40 41 42 43
17 18 18 18 18 19 19 19 20 21 21 22 22 22 24 24 25 25 26 26 27 28 29 30 31 31 32 33 34 34 36 37 37 37 38 40 41 42 43 44 45 46 46
16 16 17 17 18 19 19 20 20 21 21 22 22 23 24 24 25 25 27 28 29 30 31 31 32 33 34 35 35 36 38 39 40 40 41 42 43 44 45 46 47 48 49
15 15 15 16 17 18 19 20 20 21 22 23 24 25 25 26 27 27 28 29 31 32 33 34 34 35 35 36 37 38 39 40 42 43 44 45 46 47 48 48 49 50 51
15 16 17 17 18 18 19 20 21 22 24 25 25 26 26 27 28 29 29 30 32 33 34 36 36 37 37 38 39 40 41 43 45 46 46 47 49 50 51 52 53 53 54
16 17 17 18 19 20 20 21 22 24 25 26 26 26 27 28 28 29 30 31 32 34 36 37 38 39 40 40 42 43 44 46 47 48 48 48 49 51 52 54 55 56 56
18 18 18 19 20 21 23 24 24 26 27 28 28 28 29 30 30 30 32 33 34 36 36 38 39 41 42 43 44 45 46 46 47 48 49 50 51 52 54 56 57 57 58
19 19 20 21 22 24 25 25 26 27 28 29 29 30 31 31 31 32 33 35 36 37 38 40 41 42 44 44 45 45 46 47 49 50 51 52 53 54 54 55 56 57 58

GEFSMA_500_meanwind_138.txt.gz
Wind_Speed
8 7 7 6 5 5 5 4 4 4 3 3 3 3 3 3 3 2 2 2 3 3 3 3 3 3 4 4 4 5 6 6 5 5 5 6 6 6 6 5 6 6 7
10 9 8 7 6 6 6 5 5 4 3 3 3 3 3 3 3 2 2 2 2 2 3 3 3 3 4 5 5 6 6 6 6 6 6 6 6 7 7 7 7 8 8
11 10 9 8 7 7 6 6 5 5 4 4 4 4 4 4 3 3 2 2 2 2 2 3 3 3 3 3 4 5 5 6 6 6 6 7 7 8 8 8 8 8 9
11 12 11 10 9 8 7 8 6 5 5 5 5 4 4 4 3 3 3 2 2 2 2 2 3 3 2 2 2 3 3 4 5 6 6 7 7 7 8 8 8 9 9
12 12 11 10 10 9 8 8 7 6 6 6 6 5 5 4 4 4 3 3 3 2 2 2 2 2 2 2 2 2 3 3 4 5 5 6 7 7 7 7 8 9 9
12 12 12 11 10 10 9 9 8 7 7 6 6 6 6 5 5 4 4 4 3 3 2 3 3 2 2 2 2 2 3 3 4 4 5 6 6 7 8 8 8 8 9
12 12 13 12 12 11 10 9 9 8 8 7 7 7 7 6 6 5 5 5 4 4 3 3 3 3 3 3 3 3 3 4 4 4 5 5 6 7 7 7 8 8 8
13 13 13 13 13 12 11 10 9 9 9 8 8 8 8 8 7 7 7 6 6 5 5 4 4 5 5 5 5 5 5 6 6 6 6 6 7 7 7 8 8 9 9
14 14 15 14 13 13 12 11 11 10 10 9 8 9 9 8 8 8 8 8 8 7 7 6 6 6 6 7 7 7 8 8 8 8 8 8 8 8 9 9 10 10 11
12 13 15 15 14 14 14 13 12 11 11 11 10 10 10 10 10 10 9 9 9 9 9 8 8 8 8 9 9 9 10 10 10 10 10 10 11 11 11 12 13 13 14
13 14 15 15 15 15 15 14 13 13 13 12 12 12 11 11 11 11 11 11 11 11 11 11 11 11 11 11 11 12 12 12 12 13 13 13 14 14 15 16 16 17 17
13 14 14 15 15 15 15 15 15 15 14 14 14 13 13 13 13 13 13 13 13 13 13 13 13 13 13 14 14 14 15 15 15 15 16 16 16 17 17 18 19 19 20
13 14 14 14 15 16 16 16 16 16 16 16 16 15 15 15 15 14 15 15 15 15 15 15 15 15 15 16 16 17 17 17 18 18 18 18 19 20 20 21 22 22 23
13 15 15 15 15 16 16 17 17 18 18 18 18 17 17 17 16 16 17 17 17 16 16 16 16 17 17 18 18 19 19 19 20 20 21 21 22 23 24 24 25 25 26
13 15 16 16 16 17 17 18 18 19 19 20 20 19 19 19 18 18 18 18 18 18 18 18 18 19 19 20 20 21 21 21 22 23 24 25 25 26 27 28 29 29 30
14 15 16 17 18 18 19 19 19 20 20 21 21 21 21 21 20 20 20 21 21 21 21 21 21 21 21 21 22 23 23 24 25 25 26 27 29 29 30 31 31 32 33
14 15 16 17 17 18 18 19 20 21 21 21 22 22 22 22 23 23 23 23 22 22 22 23 22 23 23 24 24 25 26 27 27 28 29 30 31 33 33 34 34 35 36
13 15 16 17 18 18 19 20 21 21 21 21 22 22 22 22 23 23 24 24 23 23 24 24 24 25 25 25 25 26 28 28 29 30 32 33 34 35 35 36 38 39 39
13 14 16 17 18 18 19 20 20 21 21 20 21 21 21 22 22 24 24 24 25 25 25 26 26 27 27 27 28 29 29 30 32 33 34 35 36 37 38 39 40 41 42
13 15 15 17 18 19 19 19 18 19 20 21 20 21 22 22 23 23 24 25 25 25 26 26 26 27 28 29 30 31 32 33 34 36 37 37 38 40 41 42 42 43 45
12 13 14 15 16 17 18 18 18 18 19 20 21 22 22 23 23 24 25 25 25 26 27 27 28 29 30 31 33 34 35 36 37 38 39 40 41 43 44 45 45 46 48
12 13 14 15 16 17 18 18 19 20 21 22 22 23 23 24 25 25 25 26 26 27 28 29 30 31 32 34 34 36 37 38 40 41 42 43 45 46 47 48 49 50 51
13 14 14 15 16 17 18 19 20 20 21 21 22 23 23 24 25 26 27 27 28 29 30 31 32 32 34 35 36 38 39 40 41 43 45 46 47 48 48 49 50 51 52
15 14 15 16 18 19 19 19 21 21 21 22 23 23 24 25 25 26 26 27 28 29 31 31 32 34 35 36 38 39 41 43 44 45 46 46 47 49 50 51 52 53 55
16 16 16 17 17 18 18 20 21 21 22 23 24 25 25 26 27 28 28 28 30 31 33 34 34 35 37 39 40 42 43 45 46 46 47 48 49 50 52 54 54 55 56
17 18 18 19 19 19 20 20 20 21 23 24 25 26 26 27 28 28 29 31 32 33 34 35 36 37 39 41 42 44 45 47 47 47 48 49 51 52 53 54 55 55 56

GEFSMA_500_meanwind_144.txt.gz
Wind_Speed
5 5 4 4 3 3 3 2 2 2 2 2 2 2 2 1 1 1 1 2 2 2 3 3 3 4 4 4 4 4 4 4 5 5 5 5 5 5 6 6 6 6 7
7 6 5 5 5 4 4 3 3 2 3 3 2 2 2 2 1 1 1 2 2 2 3 3 4 4 4 4 4 5 5 5 5 5 5 6 6 6 6 7 7 7 8
8 8 7 7 6 6 5 5 4 4 4 4 3 2 2 2 2 2 2 2 2 3 3 4 4 4 4 4 4 4 5 5 5 5 6 6 6 7 7 7 8 8 8
9 9 8 8 8 7 6 6 6 5 5 4 4 3 3 2 3 2 3 3 3 3 3 4 4 4 4 4 4 3 4 5 5 5 6 6 7 7 7 8 8 8 9
8 9 9 9 8 8 8 8 7 6 6 6 5 4 4 4 3 3 4 4 4 4 4 4 4 4 4 4 4 4 4 5 5 5 6 6 7 7 8 8 8 9 9
9 9 9 10 9 9 9 8 8 8 7 7 7 6 5 5 5 4 4 4 4 4 4 5 5 4 4 5 5 5 5 5 5 6 7 7 8 8 8 9 9 10 10
9 10 10 10 10 10 9 9 8 8 8 7 7 7 7 7 7 6 6 6 5 5 5 5 5 5 5 5 5 6 6 6 7 7 8 9 9 9 9 10 10 10 10
9 10 10 10 10 10 10 10 9 8 8 8 8 8 9 8 8 8 7 7 7 6 6 6 6 7 6 6 7 7 8 8 9 9 9 10 10 11 11 11 11 12 12
8 10 11 11 11 11 11 11 10 10 10 9 9 9 10 9 9 9 9 9 8 8 8 8 8 9 8 8 9 10 10 10 10 11 11 12 12 12 12 13 13 13 13
9 10 12 12 13 13 13 13 12 12 12 11 11 11 11 11 11 11 11 11 11 10 10 10 10 11 11 11 11 11 12 12 13 13 13 14 14 14 14 15 15 16 16
11 11 12 13 14 14 15 14 14 13 13 13 13 13 12 13 13 13 13 13 13 13 13 13 13 13 13 13 14 14 14 15 16 16 16 16 16 17 17 17 18 19 19
11 12 13 14 14 15 15 15 15 15 15 15 15 15 15 14 15 15 15 15 15 16 16 16 16 16 16 16 16 16 17 18 18 18 19 19 19 19 20 20 21 22 22
12 13 14 14 15 16 16 17 17 17 17 16 17 17 17 17 17 17 17 17 17 17 17 18 18 18 18 19 19 19 19 20 20 20 21 21 21 21 22 23 23 24 24
13 13 14 15 16 16 17 17 18 18 18 18 18 19 19 19 20 20 20 19 20 19 20 20 21 21 21 21 22 22 21 21 21 22 23 23 23 24 24 25 26 27 27
13 14 14 15 16 17 17 18 18 19 19 20 20 20 20 20 21 21 22 22 22 22 21 22 22 23 23 23 23 23 24 24 24 24 25 26 26 27 28 28 29 30 31
13 14 15 16 17 17 18 19 19 20 21 21 21 21 21 22 22 23 24 24 23 23 23 24 24 24 25 25 25 26 26 26 26 26 27 28 29 30 31 31 32 33 34
13 14 15 16 18 19 20 20 20 21 22 22 22 23 23 23 24 24 24 25 25 25 26 26 26 26 26 27 27 27 28 28 29 29 29 31 32 33 33 34 35 36 37
13 14 15 16 18 19 20 20 20 21 22 23 23 24 25 25 25 25 24 24 25 26 26 27 28 29 29 29 29 30 30 31 31 32 33 34 35 35 37 37 38 39 40
12 13 15 16 17 19 20 20 21 22 22 23 25 25 25 25 24 25 25 26 26 26 26 27 28 30 30 30 30 31 32 32 33 35 36 37 38 39 40 41 42 43 43
13 13 14 16 17 19 20 22 22 23 23 24 24 24 24 24 25 25 26 27 27 27 27 28 28 29 31 32 32 33 34 34 36 37 38 39 40 41 42 43 44 45 47
13 14 15 16 17 18 20 21 22 22 23 23 24 25 24 24 25 26 27 28 27 27 28 28 29 31 32 33 34 35 36 37 38 39 40 41 42 43 44 45 46 48 49
13 14 15 15 17 18 19 21 21 22 22 23 24 24 24 25 26 27 27 27 27 27 28 29 30 31 32 33 34 36 37 38 39 40 41 42 44 45 46 47 49 51 51
14 14 15 16 16 17 19 20 20 21 22 23 23 24 24 25 26 26 27 28 28 28 30 31 32 32 33 34 35 37 38 40 40 42 43 44 46 48 49 51 51 52 53
16 16 16 16 17 18 18 19 21 22 22 23 23 24 25 26 27 28 28 29 30 31 32 33 33 33 34 35 37 38 40 41 42 43 45 46 48 50 51 51 52 53 54
18 18 18 18 18 19 18 18 20 21 22 23 24 25 26 26 27 28 29 30 31 33 33 33 33 34 35 37 38 39 41 42 44 45 46 48 49 49 50 51 52 53 54
20 20 20 20 20 20 20 20 21 21 23 23 24 25 25 26 27 28 29 30 32 33 33 33 34 35 36 38 39 41 43 44 45 46 47 48 49 49 50 51 52 53 52

GEFSMA_500_meanwind_150.txt.gz
Wind_Speed
6 6 6 6 6 5 5 4 4 4 4 4 4 3 3 2 2 1 0 0 1 2 2 2 2 2 2 2 3 3 3 3 3 2 3 3 3 4 3 3 4 4 4
7 6 6 6 6 6 5 5 4 4 4 4 4 3 3 2 1 1 0 1 1 2 2 2 3 3 2 3 3 3 4 4 4 4 4 4 4 4 4 4 4 4 5
6 7 7 7 7 7 6 6 5 4 4 4 3 3 3 2 2 1 1 0 1 2 2 3 3 3 3 3 3 3 4 4 5 5 4 4 4 4 4 5 5 5 6
6 7 7 7 7 7 7 6 5 5 4 4 4 4 3 3 2 2 1 2 2 3 3 3 4 4 4 4 4 4 4 4 4 4 5 5 5 5 6 6 7 7 7
7 7 8 8 8 8 8 7 6 5 5 4 4 4 4 4 4 3 3 3 3 3 4 4 4 4 4 4 4 4 4 4 5 5 5 5 6 6 7 7 8 8 8
7 7 8 9 10 10 9 8 7 6 6 6 5 5 5 5 5 5 5 5 5 5 5 5 5 5 5 5 5 5 5 5 6 6 7 7 7 8 8 9 9 9 9
7 7 8 9 10 10 9 9 8 8 7 7 6 6 6 6 7 7 7 6 6 6 6 6 6 6 6 6 6 6 6 7 7 8 8 9 9 10 10 11 11 11 12
8 8 10 10 11 11 11 10 10 9 8 7 7 7 7 8 8 8 8 8 8 8 8 8 8 8 8 8 8 8 9 9 9 10 10 11 11 12 12 12 13 13 13
8 9 10 11 11 12 11 11 10 10 9 9 9 9 9 9 9 9 10 10 10 10 10 10 10 10 10 11 10 10 11 11 11 11 12 12 13 13 14 14 14 14 15
9 9 10 11 12 12 12 12 12 11 11 11 11 10 11 11 11 11 11 12 12 12 12 12 12 13 13 13 12 12 13 13 13 14 14 15 15 15 15 16 16 17 17
9 10 10 12 13 13 13 13 13 13 12 12 12 12 13 13 13 13 13 14 14 14 14 15 15 15 15 15 15 15 16 16 16 17 17 17 17 17 17 18 19 19 19
10 11 11 12 13 14 14 14 14 14 14 14 14 14 15 15 15 15 15 16 16 16 17 17 17 18 18 18 19 19 19 19 19 19 19 19 19 20 20 20 20 20 21
11 11 12 13 13 14 15 15 15 15 15 16 16 16 17 17 17 18 18 18 19 19 20 20 20 20 20 21 21 21 22 21 21 21 21 21 22 22 22 22 22 23 23
11 11 12 13 13 14 15 16 16 16 16 17 18 18 18 19 19 19 19 20 21 21 21 21 22 22 23 23 23 23 23 23 23 23 23 23 24 24 24 25 25 26 26
11 12 13 13 14 15 16 17 17 18 18 18 19 19 19 20 20 21 21 21 22 23 23 23 24 24 25 25 25 25 25 25 25 25 26 26 26 27 27 27 27 28 29
12 12 14 15 15 15 16 17 19 19 20 20 21 21 21 22 22 23 23 24 24 24 25 26 26 26 27 28 27 27 27 27 28 28 28 28 28 29 29 29 31 32 32
11 12 13 15 16 16 17 18 19 20 21 22 22 23 23 23 24 24 25 25 25 25 26 26 27 27 28 28 28 29 29 29 30 30 31 31 31 31 31 33 34 34 36
11 12 13 14 16 17 17 18 19 21 22 22 23 24 25 25 26 26 26 26 26 27 27 27 27 28 28 29 30 29 30 31 32 32 33 33 34 35 35 35 36 37 39
12 12 13 14 15 16 18 19 20 21 22 22 23 24 25 25 26 26 26 27 26 26 26 27 28 28 28 29 29 30 31 32 32 33 33 34 34 35 37 38 39 40 42
12 12 13 14 15 16 18 19 20 21 22 23 24 25 25 26 26 26 26 26 26 25 26 28 28 29 29 29 30 31 32 33 33 34 35 36 37 38 38 39 40 41 42
12 13 14 15 16 17 17 19 20 21 22 23 24 25 24 24 25 26 25 25 26 27 27 29 30 30 30 30 31 32 33 34 34 35 37 38 39 40 40 40 40 41 43
13 14 15 15 16 17 18 18 19 20 21 22 23 24 23 23 24 24 25 25 26 27 28 29 30 31 31 32 32 33 34 35 36 38 39 41 41 40 40 41 42 44 45
14 15 15 16 17 17 18 19 19 20 20 21 22 22 23 23 23 23 24 26 27 28 29 30 31 31 32 32 34 35 36 37 38 38 40 41 41 41 42 43 45 46 47
16 17 17 17 18 18 19 19 19 19 20 21 21 21 22 23 23 24 25 26 27 28 29 29 29 30 32 33 34 35 37 38 38 39 39 40 41 43 44 44 45 46 48
18 18 18 18 19 19 20 20 20 20 20 21 21 21 22 23 24 25 26 26 27 28 28 29 29 30 31 32 32 34 35 36 37 37 38 40 41 43 44 44 45 46 46
19 19 19 20 20 21 21 21 21 21 21 22 23 23 23 24 25 25 26 26 27 27 28 28 29 30 31 31 32 33 34 35 36 37 38 39 40 41 42 42 43 44 44

GEFSMA_500_meanwind_156.txt.gz
Wind_Speed
3 4 3 4 4 4 4 4 5 4 4 4 3 3 3 2 1 1 2 2 1 2 2 2 2 2 2 2 2 3 3 3 3 3 3 2 2 2 3 3 3 3 3
4 4 4 3 4 4 4 4 4 4 4 4 3 3 3 2 1 1 1 1 1 1 2 2 2 2 2 3 3 3 4 4 4 4 4 3 3 3 4 4 4 5 4
4 5 4 4 4 5 4 4 4 4 4 3 3 3 3 2 1 1 0 0 1 2 2 3 3 3 3 3 3 4 4 4 4 4 4 4 4 4 5 5 6 5 6
5 5 5 5 5 5 5 5 4 4 4 3 2 3 3 3 2 2 1 2 2 2 3 4 4 4 4 4 4 4 4 5 5 5 5 5 5 6 6 7 7 7 8
7 6 6 7 6 6 6 6 6 5 4 3 3 2 3 3 3 3 3 3 3 4 5 5 5 5 5 5 5 5 5 6 6 6 6 6 7 7 7 8 9 9 9
7 7 7 8 8 8 8 7 7 6 5 4 4 4 4 4 4 4 5 5 5 5 5 5 5 5 6 6 6 6 6 6 6 7 7 8 8 8 9 9 10 11 11
7 8 8 8 8 9 9 8 7 7 6 6 6 5 5 5 6 6 6 6 6 6 6 6 6 7 6 7 7 7 8 8 8 8 9 10 10 11 11 11 11 12 12
7 8 8 9 9 9 9 10 9 8 8 7 7 7 7 7 7 8 8 8 8 8 8 8 8 8 8 9 9 9 10 10 10 11 11 11 12 12 13 13 14 14 14
7 8 9 9 9 10 10 10 10 10 10 9 9 9 9 9 9 9 10 10 10 10 10 10 10 10 10 11 11 11 12 12 12 13 12 13 14 14 15 15 16 15 15
7 8 8 9 9 10 10 11 11 11 11 11 11 10 10 10 10 10 11 11 11 11 11 12 12 12 12 13 13 13 14 14 14 14 15 15 16 16 16 17 17 17 17
7 8 8 9 10 10 11 12 12 13 13 12 12 12 12 12 12 12 12 12 13 13 13 14 14 15 15 15 15 16 16 16 17 17 17 17 18 18 18 18 18 19 19
7 8 9 9 10 11 11 12 13 13 13 13 14 14 14 14 14 15 15 15 15 15 15 16 16 17 17 18 18 18 18 19 19 20 20 20 19 19 20 20 21 21 21
8 9 9 10 10 11 12 13 13 13 14 14 15 15 16 16 16 16 17 17 17 18 18 19 19 19 19 19 20 20 20 21 21 22 22 22 22 22 23 23 23 23 23
8 9 10 10 11 12 13 14 14 15 15 16 16 17 18 18 19 19 19 19 20 20 20 20 20 21 20 21 21 22 22 22 23 23 24 24 25 25 25 26 26 26 26
10 10 10 11 11 12 13 15 15 16 16 17 18 18 19 20 20 21 21 21 21 21 21 21 22 22 22 23 23 23 23 24 24 24 24 25 26 27 28 28 28 28 28
11 11 11 11 11 12 13 15 16 16 17 18 19 20 20 21 22 23 24 24 23 23 23 23 23 23 23 23 23 24 23 24 25 25 26 27 28 29 29 29 30 30 31
12 12 12 12 12 12 13 15 16 17 18 19 20 21 21 22 23 24 24 24 24 24 24 24 24 24 24 23 23 24 24 25 25 26 27 29 29 30 31 31 31 32 34
12 12 13 13 14 14 15 15 17 18 19 19 20 21 22 23 23 24 24 24 24 24 24 24 25 25 24 24 24 25 26 26 27 27 28 29 30 30 31 32 33 34 34
12 13 14 14 15 15 16 17 17 19 20 21 21 22 23 24 24 24 25 25 25 25 24 24 24 25 25 24 25 25 26 27 28 30 30 31 31 31 32 33 34 34 35
14 14 15 15 15 16 17 17 18 19 20 21 22 22 23 24 24 24 24 25 25 25 24 24 24 26 26 26 27 27 28 29 30 31 32 32 32 32 33 34 35 35 36
14 15 15 16 16 17 17 18 19 19 20 21 21 21 22 23 24 24 24 24 24 25 25 25 26 27 27 28 28 29 30 31 31 32 32 32 33 34 35 35 36 36 37
14 15 15 16 17 17 18 18 19 20 20 20 21 22 22 23 23 23 23 24 25 26 26 26 27 28 28 29 30 30 31 31 31 32 33 33 34 34 35 36 36 37 38
15 16 16 17 18 18 19 19 19 20 20 21 22 22 22 23 23 23 23 24 25 26 26 26 27 28 29 29 30 30 31 32 32 32 33 33 34 34 35 36 37 38 39
17 17 17 18 19 19 20 21 21 22 22 22 22 23 23 23 23 23 24 25 26 26 26 26 27 27 28 29 31 32 32 33 33 32 33 34 34 35 36 37 38 39 40
19 19 19 20 21 21 22 22 23 23 23 23 23 23 23 24 24 24 24 24 25 25 26 27 28 29 30 31 32 32 33 33 33 33 34 35 36 37 37 38 38 39 39
20 20 21 22 23 23 24 24 24 24 24 24 24 24 24 24 24 25 25 25 25 26 26 27 28 29 29 30 31 33 34 34 34 34 34 35 36 37 38 38 38 39 39

GEFSMA_500_meanwind_162.txt.gz
Wind_Speed
2 2 2 3 3 3 2 2 3 3 4 5 4 3 3 3 2 2 1 1 1 0 0 1 1 1 2 2 3 3 3 3 4 4 4 4 4 4 4 4 4 4 5
1 1 2 3 3 3 3 3 3 3 4 4 3 3 3 2 2 1 1 0 0 1 1 1 2 2 3 3 3 3 4 4 4 5 5 5 5 5 5 5 6 6 6
1 2 2 3 3 3 3 3 3 3 4 4 3 3 2 2 2 2 1 1 1 1 2 2 2 3 3 4 4 4 5 5 5 6 6 6 6 7 7 7 7 8 8
2 2 3 3 3 4 4 4 4 3 3 3 3 3 3 3 3 2 2 2 3 3 3 3 3 4 4 5 5 6 6 6 6 6 6 6 7 7 8 8 8 9 9
2 3 3 4 4 4 4 4 4 4 4 4 3 3 4 4 4 4 4 4 4 4 5 5 5 6 6 6 6 7 7 7 7 7 7 7 8 8 8 9 9 10 11
2 3 4 5 5 5 6 6 5 5 5 5 4 5 5 5 5 6 6 6 6 6 6 6 7 7 7 7 7 7 8 8 8 8 8 9 9 10 10 10 11 12 12
2 3 5 5 5 6 7 8 7 6 6 6 6 6 7 7 7 7 7 8 8 8 8 8 8 8 8 8 8 8 9 9 10 11 11 11 11 11 11 12 12 13 13
3 4 5 6 6 7 8 8 9 8 8 8 8 8 8 9 9 9 10 9 9 9 9 10 10 10 9 10 10 10 11 11 11 12 12 12 12 13 13 14 14 14 15
4 5 5 6 6 7 9 9 10 10 10 9 9 9 10 10 10 10 10 10 10 11 12 12 12 12 12 12 13 13 13 13 14 14 14 14 14 14 15 15 15 16 16
5 5 5 6 7 7 8 10 10 10 11 11 11 11 12 12 11 11 11 11 11 12 12 13 13 14 14 15 15 15 15 15 15 16 16 16 16 16 16 17 17 17 17
5 6 6 6 7 8 9 10 11 11 12 12 12 12 13 13 12 13 13 13 13 14 14 15 15 15 16 16 16 17 17 17 18 18 18 18 18 18 18 18 18 19 19
5 6 7 7 7 8 9 10 11 12 13 13 13 13 13 13 13 14 14 15 15 16 16 16 17 18 18 18 18 19 19 19 20 20 19 19 20 20 20 20 20 20 21
5 6 6 6 6 8 9 10 10 12 13 13 13 14 13 13 13 14 15 16 17 18 18 18 19 19 20 20 20 19 20 20 21 21 22 22 22 22 22 22 23 23 23
5 5 6 6 7 7 8 9 10 11 13 13 14 14 14 15 15 15 15 17 17 19 19 20 20 20 20 21 21 21 22 22 23 23 23 24 23 23 24 24 25 26 26
6 6 7 7 8 8 9 10 10 12 12 13 15 15 16 16 17 17 18 18 18 19 20 21 22 22 22 22 22 22 23 23 23 23 24 24 24 25 25 26 26 27 28
7 8 8 8 9 10 10 10 11 12 13 14 15 16 17 18 18 19 20 20 20 21 21 23 24 24 24 24 24 25 25 24 24 24 25 25 25 26 26 27 28 29 29
7 8 9 9 10 10 11 12 12 12 13 14 15 16 17 18 19 20 21 21 22 23 23 23 24 24 24 25 25 26 25 24 24 25 25 26 27 27 28 29 30 30 31
9 9 10 10 11 11 12 12 12 13 14 15 16 17 18 19 20 21 22 23 23 23 24 24 24 25 24 25 25 25 24 25 25 25 26 27 28 28 29 30 31 32 33
9 10 11 11 11 12 12 12 13 14 15 16 17 18 18 19 20 21 22 22 23 24 24 24 24 25 25 25 25 24 25 25 26 26 27 27 28 29 30 31 32 33 34
10 11 11 12 12 12 13 13 14 15 15 16 17 18 19 19 20 21 21 21 22 22 23 24 25 25 26 25 25 25 26 26 26 27 27 28 29 30 31 32 34 35 35
11 11 12 13 13 14 14 14 15 15 16 17 18 19 19 20 21 21 21 21 21 22 23 23 24 24 25 25 26 26 27 27 27 28 29 29 30 31 32 34 35 35 35
12 12 12 13 14 14 15 15 16 17 17 18 19 19 19 19 20 20 21 21 21 22 22 22 23 24 25 25 26 27 27 28 29 29 31 32 33 33 33 34 35 35 36
13 13 13 14 15 15 16 16 17 17 18 19 19 19 20 20 21 21 21 21 21 22 22 23 23 23 24 25 26 28 29 30 30 30 31 32 33 33 34 35 36 36 36
14 14 14 15 16 16 17 17 18 18 19 19 20 20 21 21 21 21 21 21 22 22 23 23 24 24 24 25 27 29 30 31 31 32 32 33 34 34 35 36 36 36 37
15 15 16 16 16 17 18 18 19 19 20 21 21 21 21 21 21 21 22 22 23 23 25 26 26 26 27 27 28 29 31 32 32 33 33 34 34 35 36 36 37 37 37
16 17 17 18 18 19 19 20 21 21 21 21 21 22 21 21 22 22 22 23 24 25 26 27 27 28 28 28 29 30 31 32 33 33 34 34 34 35 37 37 37 38 38

GEFSMA_500_meanwind_168.txt.gz
Wind_Speed
1 1 2 3 3 2 2 2 2 2 2 2 2 2 2 2 2 1 1 1 2 2 2 3 3 3 3 3 3 3 3 4 4 4 3 3 4 4 4 5 4 5 5
2 2 2 2 2 2 2 2 2 2 2 2 2 2 2 1 1 0 0 1 2 2 3 3 3 3 4 4 4 4 5 5 5 5 5 5 5 5 6 6 6 6 7
1 2 3 3 3 3 3 3 3 3 3 3 3 3 2 2 1 1 2 2 2 3 4 4 4 4 5 5 6 6 6 6 6 6 7 7 7 7 7 7 7 8 8
1 2 2 3 3 3 3 3 4 4 4 3 3 3 3 3 2 2 3 3 3 4 4 5 5 6 6 6 7 7 7 7 8 8 8 8 8 8 8 9 9 10 10
1 2 2 3 3 4 5 5 5 4 4 3 4 4 4 4 3 4 4 5 5 5 6 6 6 6 7 8 8 8 9 9 8 8 8 9 9 9 10 10 11 11 11
1 3 3 3 4 4 5 5 5 5 5 5 5 5 5 5 5 6 6 7 7 7 7 7 8 8 9 9 9 10 10 10 10 10 10 10 11 11 11 11 12 12 13
2 3 3 4 4 5 6 6 6 6 6 6 6 6 7 6 7 7 7 8 9 9 9 10 10 10 10 11 11 11 11 12 12 12 12 13 13 13 13 13 13 14 14
4 4 4 5 5 6 6 7 8 8 8 8 8 8 8 8 9 9 9 10 10 11 11 11 11 12 12 12 13 13 13 13 13 14 15 15 15 15 15 15 16 16 16
5 5 5 5 6 6 7 8 9 9 10 10 10 10 10 11 11 11 12 12 13 13 12 13 13 13 14 14 15 15 15 15 16 16 17 17 17 17 17 17 17 17 17
5 6 6 6 6 7 8 9 10 10 11 11 12 12 12 12 13 13 13 14 14 15 15 15 15 15 16 16 16 17 17 17 18 17 17 18 18 19 19 19 19 19 20
5 6 7 7 8 8 9 10 10 11 11 12 12 13 14 14 14 14 14 15 15 15 16 16 17 17 18 18 19 19 19 19 19 19 19 19 19 20 20 20 21 21 22
5 5 7 7 8 8 8 8 9 11 11 12 13 14 14 14 14 14 15 15 16 17 17 18 18 18 19 19 20 20 21 20 20 20 21 21 22 22 22 23 23 24 24
5 6 6 7 8 7 8 9 9 10 11 13 14 15 15 15 15 16 17 17 18 19 19 19 19 19 20 20 21 21 22 22 22 22 23 23 24 24 25 25 25 25 25
5 6 7 7 8 8 9 9 10 11 12 13 14 15 16 16 17 17 18 19 19 20 21 21 21 22 22 22 22 22 23 23 23 24 25 25 26 27 26 26 26 27 27
7 7 8 8 9 10 10 11 11 12 13 14 14 15 16 17 18 19 19 20 21 21 21 22 24 24 24 24 24 25 25 25 25 26 26 27 28 28 29 28 27 27 27
8 8 9 9 10 11 11 12 12 13 14 14 15 15 16 17 19 19 20 21 22 23 22 23 24 25 25 25 25 25 24 24 26 27 27 28 28 28 28 28 29 29 29
9 9 9 10 11 11 12 12 13 13 14 14 15 16 16 17 18 19 21 22 23 23 23 23 25 26 26 26 26 26 25 25 26 26 28 28 28 28 28 29 29 29 30
10 10 11 11 12 12 13 13 14 14 14 15 16 16 17 18 18 19 20 21 22 23 24 23 24 25 26 26 26 26 26 26 26 27 28 28 29 29 29 29 29 30 31
11 11 12 12 13 13 14 14 14 14 15 15 16 16 17 18 19 20 20 21 22 23 23 24 24 25 25 25 25 26 26 27 27 28 28 29 29 29 30 30 31 31 32
13 13 13 14 14 14 14 15 15 15 16 17 17 18 19 20 21 22 22 23 23 24 24 24 24 24 25 24 25 26 27 28 28 28 28 29 30 30 31 31 32 32 33
13 13 14 14 15 16 16 16 16 16 17 17 18 19 20 20 21 22 22 23 23 23 24 24 24 24 24 25 25 27 27 28 29 29 30 30 31 32 33 33 34 34 35
13 14 15 15 16 17 16 16 17 18 18 18 19 20 21 22 22 22 22 23 24 24 24 24 24 24 25 26 27 28 28 28 29 30 31 32 32 32 33 34 34 34 35
15 16 16 17 17 17 17 18 18 19 19 19 20 20 21 22 22 23 23 23 23 24 24 24 25 25 26 27 27 28 29 29 30 31 32 32 32 32 33 34 35 35 36
16 17 18 17 17 18 19 19 20 20 20 21 21 22 22 22 23 23 23 24 24 25 25 26 26 27 27 27 28 28 29 30 30 31 32 32 33 34 34 35 35 36 37
17 17 17 17 17 18 19 19 20 21 22 22 22 22 22 23 23 24 24 25 26 26 27 27 28 28 29 29 30 31 31 31 32 32 33 34 34 34 35 36 37 37 38
18 18 18 17 17 18 18 19 20 21 22 23 23 24 24 25 25 26 26 26 27 27 28 29 30 30 30 31 32 33 33 33 33 34 34 35 35 36 36 36 37 37 37

GEFSMA_500_meanwind_174.txt.gz
Wind_Speed
6 6 6 6 5 5 5 5 4 4 4 4 3 3 3 2 2 2 2 2 2 1 1 1 1 1 1 1 1 1 2 2 2 2 2 3 3 3 3 3 3 4 4
6 5 5 5 5 5 5 4 4 4 4 3 3 3 3 2 2 1 1 1 0 0 1 1 1 2 2 2 3 3 3 3 3 4 4 5 5 5 5 5 5 6 6
5 5 5 5 5 4 4 4 4 4 3 3 3 3 3 2 2 2 2 2 2 2 2 3 3 4 4 4 4 4 4 5 5 5 6 6 6 6 7 7 7 8 8
5 5 5 5 5 5 4 4 4 4 4 3 3 3 3 4 3 3 3 3 3 3 4 4 5 5 5 5 5 6 6 6 7 7 7 7 7 7 8 9 9 9 10
4 5 5 5 5 5 5 4 4 5 5 4 4 4 4 5 4 4 5 5 5 5 5 5 6 6 7 7 7 7 8 8 8 8 8 8 9 9 9 10 10 10 11
3 4 5 5 5 5 5 5 5 5 6 6 5 5 6 6 6 6 6 7 7 7 7 7 7 7 8 9 9 9 10 10 10 10 10 10 10 11 11 11 12 12 12
3 4 4 5 5 6 6 5 5 6 6 6 7 7 7 7 8 8 8 9 9 9 9 9 9 10 10 10 10 11 11 12 12 12 12 12 13 13 13 13 13 13 14
4 4 5 5 5 6 6 6 6 7 7 8 8 8 9 9 10 10 11 11 11 11 11 11 11 11 11 12 12 12 13 13 14 14 14 15 14 14 15 15 15 15 16
5 5 5 5 6 6 7 7 7 7 7 8 9 9 9 10 11 11 12 12 12 12 12 12 12 13 13 14 14 14 14 14 15 15 16 16 17 17 17 17 17 18 18
5 5 5 6 6 6 7 7 8 9 9 9 10 10 11 11 12 13 13 13 13 14 14 14 14 14 14 14 14 15 16 16 16 17 17 18 18 18 18 18 19 19 19
4 5 5 6 6 6 7 7 8 9 10 10 10 11 11 12 13 14 14 14 15 15 15 15 15 16 16 16 16 17 17 17 18 19 19 20 20 20 20 20 21 21 21
5 6 6 7 7 8 8 9 9 10 10 11 11 12 13 13 14 14 15 15 16 16 16 17 17 18 18 18 19 19 19 20 20 21 21 21 21 21 21 22 22 23 24
6 6 6 7 8 9 9 9 10 10 11 12 12 13 13 14 15 15 16 16 17 17 17 18 19 19 19 19 20 20 21 22 22 22 22 22 23 23 23 24 24 24 25
7 7 7 8 8 8 9 10 11 11 12 12 13 13 14 14 15 16 17 18 18 18 18 19 20 20 21 21 21 22 23 23 24 23 23 24 24 24 25 25 25 26 26
8 8 8 8 9 9 10 11 12 13 13 14 14 14 15 15 16 17 17 18 19 19 19 20 21 21 22 23 23 24 23 22 23 23 24 25 26 25 25 26 27 27 28
8 9 9 10 10 11 11 12 13 14 14 15 15 16 16 17 17 18 18 18 18 19 19 20 21 22 23 24 25 24 24 24 24 24 24 25 25 26 27 27 27 28 29
11 11 11 11 12 12 13 13 14 15 15 15 16 16 17 18 18 18 18 18 19 19 20 21 22 24 25 25 24 25 25 25 25 25 25 26 26 26 27 28 29 29 29
12 12 13 13 13 13 14 15 15 16 16 16 16 17 18 18 18 19 19 19 20 20 21 21 22 24 24 25 25 25 25 25 25 25 25 27 27 28 29 29 29 30 31
14 14 15 14 15 15 15 15 15 15 16 17 17 17 18 18 19 19 20 20 21 21 22 23 23 24 24 24 25 25 25 25 25 25 27 27 28 29 30 30 30 30 31
14 15 15 16 16 16 16 16 16 16 16 17 18 18 18 19 19 20 20 20 21 22 23 23 23 24 24 24 25 25 25 25 26 27 27 28 29 29 30 31 32 32 33
14 15 16 16 17 17 17 18 18 18 18 18 19 19 19 19 20 21 21 21 22 23 23 23 24 24 24 25 25 25 26 26 27 28 28 29 30 31 31 32 32 33 34
16 16 16 16 16 17 18 19 19 20 20 19 20 20 20 20 21 21 22 23 23 24 24 24 24 25 25 25 26 26 27 27 28 29 30 31 31 32 33 33 34 34 35
17 17 17 18 18 18 19 19 20 19 20 20 21 21 21 22 23 23 23 24 24 25 25 25 25 25 26 27 27 28 28 28 29 30 31 31 32 32 33 33 33 34 35
19 19 18 18 18 19 20 20 21 21 20 20 20 21 22 22 23 23 24 25 25 26 27 27 27 27 28 28 29 29 29 30 31 31 32 32 33 33 33 33 33 34 34
20 20 20 19 19 20 20 20 21 21 21 21 22 22 23 23 24 24 25 26 27 28 29 29 29 29 29 30 30 31 31 32 33 33 34 34 34 34 34 34 34 34 34
20 21 21 21 21 21 21 21 21 21 21 22 23 23 23 24 24 25 26 27 28 29 30 30 30 31 31 31 32 33 33 34 34 34 34 35 35 35 34 34 34 35 35

GEFSMA_500_meanwind_180.txt.gz
Wind_Speed
3 4 4 4 4 4 4 3 3 3 3 3 3 3 3 2 2 2 2 1 1 1 1 1 1 1 2 2 3 2 2 2 2 3 3 4 4 5 5 5 5 5 5
3 3 3 4 4 4 3 3 3 3 2 2 2 2 1 1 1 1 1 0 1 1 1 1 2 2 2 3 3 3 3 3 4 5 5 6 6 6 6 6 7 7 7
3 2 2 3 3 3 3 3 2 3 2 2 2 2 1 1 1 1 1 1 2 2 3 3 3 4 4 4 4 4 5 5 6 6 7 7 7 7 8 8 8 9 9
3 3 2 3 3 3 3 3 3 2 3 3 3 3 3 3 3 3 3 3 4 4 4 4 5 5 5 5 5 5 5 6 7 7 8 8 8 9 9 10 10 10 11
3 3 3 3 3 3 3 3 3 3 3 4 4 4 4 4 4 4 5 5 5 5 5 5 6 6 6 6 6 6 7 7 8 8 9 9 9 9 9 10 11 12 11
3 4 4 4 4 4 4 4 4 5 5 4 4 5 5 5 5 5 6 6 6 6 6 7 7 7 7 7 8 8 9 9 9 10 10 10 11 11 11 11 12 13 13
3 3 4 4 4 4 5 5 5 5 5 5 6 6 6 6 7 7 7 7 7 7 8 8 8 8 9 9 9 10 10 10 11 12 12 13 13 13 13 13 13 14 14
3 3 4 5 5 6 5 6 6 6 6 6 7 7 7 7 8 8 8 8 8 8 8 9 9 10 10 11 11 11 11 11 12 13 13 14 14 15 15 15 15 15 15
3 3 4 5 6 6 6 6 7 7 7 8 8 8 8 9 9 10 10 10 10 10 10 11 11 11 12 12 12 13 13 13 13 13 14 15 15 16 16 17 17 17 17
4 4 4 6 7 7 6 7 7 8 9 9 9 10 10 10 10 11 11 11 11 12 12 13 13 13 13 13 14 14 14 15 15 15 16 16 16 16 17 17 18 18 19
5 6 6 7 8 8 8 7 7 8 9 10 10 11 11 11 11 11 11 12 13 13 13 14 14 14 15 15 15 15 16 16 17 17 17 18 18 18 18 19 20 20 21
6 7 7 7 7 8 8 8 9 10 11 11 11 11 12 12 12 12 13 13 14 15 15 16 15 15 16 16 16 17 17 17 18 18 19 19 19 20 20 20 21 21 22
7 7 7 7 8 8 8 9 10 10 11 11 12 12 13 13 13 14 14 15 16 16 16 16 16 17 17 17 17 18 18 18 19 20 20 21 21 21 21 22 21 21 22
8 8 8 9 9 9 9 10 11 11 12 12 13 13 14 15 15 15 16 16 16 17 17 17 18 18 18 19 19 19 19 20 21 21 22 22 22 23 23 23 23 23 23
8 8 9 10 10 10 10 11 12 12 12 13 14 15 15 16 16 17 17 17 18 17 18 18 18 19 20 20 20 21 21 21 21 22 22 22 23 23 24 24 24 24 24
9 9 10 11 11 11 12 12 13 14 14 15 15 16 16 17 17 18 18 18 19 19 19 20 19 20 20 20 21 21 22 23 23 23 23 23 23 23 23 24 25 25 26
11 11 12 12 13 13 13 13 14 15 15 15 16 17 17 18 19 19 19 19 20 20 19 19 19 20 21 21 21 22 23 23 23 23 23 23 23 24 24 24 25 26 27
13 13 13 13 13 14 14 15 15 15 16 17 17 18 18 19 19 19 20 20 21 21 21 21 21 21 22 22 23 23 24 24 24 24 24 24 24 24 25 26 26 27 27
15 15 14 14 14 15 15 15 16 16 17 17 18 19 19 19 20 20 20 21 21 22 21 21 22 22 23 23 24 24 25 25 25 25 25 25 25 25 26 27 27 28 28
15 16 15 15 15 16 16 16 16 17 17 18 18 19 19 19 20 20 20 21 21 21 22 22 23 24 24 25 25 25 25 25 25 25 25 26 26 27 27 28 29 29 29
16 16 15 15 16 16 17 17 17 17 18 18 19 20 21 21 21 21 21 21 22 22 23 23 24 25 25 26 26 26 25 25 26 26 26 27 28 28 29 30 30 30 31
17 17 17 18 18 18 19 19 19 19 19 19 20 20 21 21 21 21 21 22 22 23 24 24 25 25 25 26 26 25 26 26 27 27 27 28 28 29 30 31 31 31 32
20 20 20 20 20 20 21 21 21 21 21 21 21 21 22 22 22 22 22 22 23 24 24 25 26 26 27 27 27 27 28 29 29 29 29 29 30 31 31 31 32 32 33
22 22 22 22 21 21 21 22 22 22 22 22 22 23 23 23 23 23 24 24 25 25 26 27 27 28 28 29 30 30 31 31 31 31 31 31 31 32 32 32 33 34 34
24 23 22 23 22 22 22 22 22 22 23 23 24 24 24 24 24 25 26 26 27 28 28 28 29 29 30 31 31 32 32 33 33 33 33 33 33 33 33 33 33 34 34
23 23 22 23 23 23 23 24 24 24 24 24 24 24 25 26 26 26 26 26 27 28 29 30 31 31 32 32 33 33 34 34 34 34 34 34 34 34 34 34 35 35 35

GEFSMA_500_meanwind_186.txt.gz
Wind_Speed
5 5 5 5 5 5 4 3 4 3 3 3 3 3 3 3 3 3 2 2 1 1 1 1 1 1 1 2 2 3 3 3 3 4 4 4 5 5 6 6 7 7 7
4 4 5 5 5 4 4 3 4 3 3 3 3 3 3 3 2 2 2 2 2 2 2 2 2 2 3 3 4 4 4 5 5 5 6 6 6 6 7 7 8 8 8
3 3 4 4 4 5 4 4 4 3 3 3 3 4 4 3 3 3 3 3 3 3 3 3 4 4 5 5 5 5 6 6 6 6 7 7 8 8 9 9 9 9 9
3 3 4 4 4 4 4 4 4 4 5 4 4 4 4 4 4 4 4 4 4 4 4 5 5 6 6 6 6 6 6 7 7 7 7 7 8 8 9 10 11 11 11
3 3 3 3 4 4 4 5 5 6 6 5 5 5 5 5 5 5 5 5 6 6 5 6 6 6 7 6 6 7 8 8 8 8 8 8 9 9 9 10 11 12 12
3 3 3 4 4 4 4 5 5 6 6 6 5 5 5 5 6 6 6 7 7 7 7 7 7 8 8 9 9 9 9 9 10 10 10 10 10 11 11 11 12 13 13
3 3 4 4 4 4 5 5 6 6 6 6 6 6 6 6 7 7 8 8 9 9 9 9 9 9 10 10 10 10 10 11 11 11 11 11 11 12 13 13 14 14 15
1 2 3 3 4 4 5 5 7 7 7 7 7 7 7 8 9 9 10 10 10 10 11 11 12 12 12 11 12 12 12 12 12 12 12 12 13 13 13 14 15 16 16
1 2 2 3 3 4 5 5 6 7 7 8 8 9 9 9 9 10 11 11 11 12 12 12 12 13 13 13 14 14 14 14 14 14 14 14 15 15 15 15 15 16 16
1 2 3 3 4 5 5 6 6 7 8 8 8 8 9 10 10 11 11 11 12 12 13 13 14 14 15 15 16 16 16 16 16 16 16 16 16 17 16 16 17 18 19
2 3 4 4 5 6 6 7 7 7 8 8 9 9 9 10 11 11 11 12 12 13 14 14 15 15 16 16 17 17 18 18 18 17 17 17 17 18 18 18 19 19 20
3 4 5 5 6 6 7 8 8 8 9 9 10 10 11 11 11 11 11 12 13 14 14 15 15 16 17 17 17 17 17 18 18 18 18 18 18 18 19 19 20 21 21
4 4 5 5 6 7 7 8 9 10 10 11 11 11 11 11 12 12 12 13 14 14 15 15 16 17 17 17 18 17 17 18 18 18 19 19 19 20 20 20 21 22 23
5 5 5 6 7 7 8 9 9 10 11 12 12 12 12 12 13 13 13 14 14 14 15 16 17 17 17 17 17 18 18 18 18 19 19 20 21 21 21 22 22 23 24
6 7 7 8 8 8 9 10 11 11 12 13 13 13 13 14 14 14 14 14 15 15 15 16 17 18 18 18 18 18 19 19 20 21 21 22 22 22 23 23 24 24 24
7 7 8 8 9 10 11 11 12 12 13 14 15 15 15 15 15 16 16 16 16 17 17 18 18 19 19 19 19 20 20 20 21 21 22 23 24 24 25 25 24 24 24
8 9 9 10 11 12 12 12 12 13 14 15 16 16 16 16 17 17 17 17 17 18 18 19 19 19 20 20 20 20 20 20 20 21 22 23 24 25 25 24 25 25 25
9 10 10 10 11 12 12 13 13 13 14 15 15 16 17 17 17 18 17 18 18 19 20 20 20 21 21 21 22 21 21 21 22 22 23 23 24 24 24 24 24 25 26
10 11 11 11 12 13 14 14 14 15 16 16 16 17 17 18 18 18 19 19 19 19 20 20 21 22 22 22 22 22 22 23 23 23 24 24 24 23 24 24 25 26 27
12 13 13 14 14 15 15 15 16 17 17 17 17 17 18 18 18 18 18 19 19 19 20 20 21 22 22 23 23 23 23 24 23 24 24 25 25 25 25 26 27 27 27
14 14 15 16 16 16 16 16 17 17 17 17 18 18 18 18 18 19 19 19 20 20 21 22 22 22 22 23 23 23 23 24 24 25 25 25 25 26 27 28 28 29 29
16 17 17 17 18 18 18 18 18 18 18 19 19 19 19 19 19 20 20 20 21 22 22 22 22 22 23 24 24 25 25 25 25 25 26 26 27 28 28 29 30 30 30
18 18 19 20 19 19 19 20 20 20 20 19 19 20 20 20 20 20 21 21 22 22 23 23 24 24 24 25 25 26 26 27 26 27 28 28 29 30 31 31 31 32 32
20 20 21 21 22 22 22 21 21 22 21 21 21 20 20 20 20 21 21 22 23 24 24 24 24 25 26 26 27 27 27 28 28 29 30 30 31 31 32 32 32 33 33
22 22 22 22 22 22 21 22 22 22 22 22 21 21 22 22 22 23 24 24 25 25 26 26 26 26 27 27 27 28 29 29 30 30 31 32 32 33 33 33 34 34 35
23 23 24 23 23 22 22 22 22 22 22 22 22 22 22 23 24 24 24 25 26 26 26 26 26 27 27 28 29 30 30 31 31 32 32 33 34 34 34 35 35 35 35

GEFSMA_500_meanwind_192.txt.gz
Wind_Speed
3 3 3 3 3 2 2 2 3 2 1 1 1 1 1 0 1 1 1 1 1 2 2 2 3 3 3 3 3 3 3 4 4 5 5 5 5 5 5 6 6 7 7
3 3 3 3 3 3 2 2 3 3 2 1 1 1 2 2 2 2 2 2 3 3 3 3 4 4 4 4 4 5 5 5 5 6 6 6 6 6 7 7 7 7 8
3 3 3 3 3 3 3 2 3 3 2 2 2 3 3 3 3 4 4 4 3 4 4 4 5 5 5 5 5 6 6 6 6 6 6 7 7 7 7 8 8 9 9
2 3 4 4 4 4 4 3 3 3 3 3 4 4 4 4 5 5 5 4 5 5 5 5 6 6 7 6 7 7 7 7 7 7 7 8 8 8 9 9 10 10 10
2 3 4 4 4 4 4 4 4 5 5 5 5 5 5 5 6 6 6 6 6 6 7 7 8 8 8 8 8 8 9 8 8 9 9 9 10 10 10 10 11 11 12
1 2 3 3 4 5 5 6 6 6 7 7 7 7 6 6 7 7 7 8 8 8 9 9 10 10 10 10 10 10 10 10 10 11 11 11 11 11 11 12 12 12 13
1 2 3 4 4 5 5 6 6 6 7 7 8 8 8 8 8 8 9 9 10 10 10 10 11 11 11 12 12 12 12 12 12 12 12 13 13 13 13 13 13 14 14
2 3 3 4 4 5 6 6 6 7 7 8 9 9 9 9 10 10 11 11 12 12 12 12 12 13 13 13 13 13 14 14 14 15 15 15 15 15 15 15 15 15 15
3 4 4 4 5 6 6 6 7 7 8 9 10 10 10 11 11 12 13 13 14 14 14 14 14 14 14 14 14 15 15 16 16 17 17 17 17 16 16 16 16 17 17
3 4 5 5 6 6 6 7 7 8 9 9 9 10 11 12 12 12 13 14 14 15 15 15 15 15 15 16 16 17 17 17 17 18 18 18 19 18 18 18 19 19 19
4 4 5 5 6 7 7 8 9 10 10 10 10 11 12 13 12 13 14 14 15 15 15 15 16 16 16 17 17 18 18 19 18 18 19 19 19 19 19 20 20 20 20
5 4 4 5 6 7 8 9 9 10 10 11 12 13 13 14 14 14 15 15 16 16 16 16 16 16 17 17 17 18 19 19 19 19 20 20 20 20 20 20 20 20 20
6 5 5 6 6 7 8 8 8 9 11 12 12 13 14 14 15 15 15 15 16 16 16 17 17 18 18 18 19 19 19 19 20 20 21 21 21 21 22 22 22 22 23
6 6 6 7 8 9 9 9 9 10 11 12 13 14 14 15 16 16 16 17 17 17 18 18 19 19 19 19 19 19 20 20 20 20 21 21 22 22 23 24 24 24 25
6 7 7 8 9 9 10 10 11 12 12 13 14 15 16 16 17 17 18 18 19 19 19 20 20 20 20 20 20 20 20 20 21 21 21 22 23 23 24 25 25 26 26
8 8 9 10 11 11 11 11 12 13 14 15 15 16 16 17 17 18 19 20 20 20 21 21 22 22 22 22 22 21 22 22 22 22 23 23 24 25 25 25 25 26 27
10 11 11 12 12 12 13 13 14 15 15 15 15 16 17 17 18 19 20 20 21 21 21 22 22 22 23 23 23 23 23 22 23 23 24 25 25 26 26 26 26 27 27
11 12 13 14 14 14 14 15 15 16 16 16 17 17 18 18 19 20 20 21 22 23 23 23 23 24 24 24 24 24 24 24 24 25 26 26 26 26 27 27 27 27 28
12 13 14 15 15 16 16 16 17 17 18 18 18 18 19 20 20 21 21 22 23 23 24 24 24 25 24 24 25 25 25 25 25 26 26 27 27 27 27 27 28 29 28
14 14 14 15 17 18 18 18 19 20 20 20 20 20 21 21 21 22 22 22 23 24 25 25 24 24 24 25 25 25 26 26 26 27 27 28 28 28 28 29 29 29 29
16 16 16 17 18 19 20 21 21 21 22 22 22 22 22 22 22 23 23 23 23 23 24 24 24 24 25 25 26 26 26 26 27 27 28 28 29 29 29 30 30 30 31
18 18 18 19 19 20 20 21 22 23 23 24 23 22 22 22 22 23 23 23 23 24 24 24 25 25 26 26 27 27 27 27 27 28 28 29 29 30 31 31 31 31 32
19 19 19 20 21 22 22 23 23 23 23 23 23 23 22 22 23 23 24 24 24 25 26 26 26 26 27 27 28 28 28 28 28 29 30 30 31 31 31 31 32 32 33
20 20 21 22 22 23 23 24 24 24 23 23 23 23 23 24 24 24 25 25 25 26 26 27 27 27 28 29 28 28 29 29 29 30 30 29 30 31 31 32 33 33 34
21 22 23 23 24 24 24 24 25 24 24 24 24 24 24 25 25 26 26 27 27 27 27 28 29 28 29 29 29 30 30 30 30 30 31 31 31 32 33 33 34 34 35
23 24 25 25 25 25 25 25 26 25 25 24 24 24 25 26 26 26 27 27 27 27 28 28 28 28 29 29 29 30 30 30 30 31 32 32 33 33 33 34 35 35 35

GEFSMA_500_meanwind_198.txt.gz
Wind_Speed
6 6 6 5 5 5 5 6 6 6 5 4 3 3 3 2 2 2 2 2 2 2 2 2 3 3 3 2 2 2 3 3 4 4 5 5 5 6 6 6 6 7 7
5 5 5 4 4 5 5 5 5 5 5 4 3 3 2 2 1 2 2 1 1 2 2 2 3 4 4 3 4 4 4 4 4 5 6 6 6 6 7 7 7 7 8
4 4 4 3 4 4 4 4 5 4 4 3 3 3 2 2 2 2 2 2 2 2 3 3 4 5 5 5 5 6 6 6 6 6 6 7 7 7 8 8 8 8 9
2 3 3 4 4 4 4 4 4 5 5 4 4 3 3 3 3 3 4 4 4 4 4 5 5 6 6 6 7 7 7 7 8 8 8 8 8 8 9 9 9 10 10
1 1 2 4 4 4 5 5 5 5 5 5 5 4 4 4 4 5 5 6 6 6 7 7 7 7 8 8 8 8 9 9 9 9 9 9 9 9 10 10 10 11 11
0 1 2 3 4 4 5 5 5 6 6 6 6 6 6 6 6 6 7 7 8 8 8 8 8 9 9 10 10 10 11 11 11 11 11 11 11 11 11 11 11 12 12
1 2 2 3 4 4 5 6 6 6 6 7 7 7 7 7 7 8 8 8 9 9 9 9 10 10 11 11 11 12 12 13 13 13 14 13 13 13 13 13 13 13 13
2 2 2 3 3 4 5 6 6 7 7 7 7 8 8 9 9 10 10 10 10 11 11 11 11 11 12 12 13 13 14 14 14 14 15 15 14 14 14 14 14 14 14
3 3 3 3 3 5 6 7 7 8 8 8 8 8 9 10 11 11 11 11 12 12 13 12 13 13 13 13 14 14 15 15 15 16 16 15 15 15 16 16 16 17 17
4 4 4 3 3 4 6 7 8 9 9 9 9 9 10 10 11 11 12 12 13 14 14 14 14 14 14 14 15 15 15 15 16 16 16 16 17 17 17 17 18 18 18
4 4 4 4 4 5 6 8 9 9 10 10 10 10 11 11 11 11 12 13 14 14 14 15 15 15 15 15 16 16 16 17 17 17 17 18 18 19 19 19 20 19 19
6 5 5 5 5 6 6 7 8 9 9 10 11 11 12 12 12 13 13 14 15 15 14 14 15 15 16 16 17 17 17 17 18 18 18 18 19 19 20 20 21 21 21
6 6 6 6 6 7 8 8 9 9 10 10 11 11 11 12 13 14 14 15 15 16 16 16 16 16 17 17 17 18 18 18 19 19 19 20 20 20 21 21 21 22 23
7 7 7 8 8 8 8 9 9 10 10 11 12 12 13 14 14 15 15 16 16 17 18 18 19 19 19 19 19 19 20 20 20 20 21 21 22 22 22 22 22 23 23
8 7 8 8 9 9 9 9 9 10 10 12 14 15 16 16 16 16 16 16 17 17 18 19 20 21 21 21 21 21 21 21 22 22 22 23 23 24 24 24 24 24 24
9 9 9 9 10 10 10 11 11 12 13 13 14 16 17 18 18 18 17 17 17 17 18 19 20 21 22 22 22 22 23 23 23 24 24 24 24 25 25 25 25 25 25
10 10 11 11 11 12 13 14 14 14 15 15 16 16 17 18 18 18 19 19 19 19 20 20 21 22 22 23 23 24 24 24 25 25 26 26 26 26 26 26 27 27 27
11 12 12 13 12 13 14 15 16 16 17 17 18 18 18 18 19 20 20 20 21 21 22 22 23 23 23 24 24 25 25 26 26 27 28 28 28 28 28 28 28 28 28
12 13 13 14 15 15 16 16 17 18 18 19 19 19 20 21 21 22 22 22 22 23 23 24 24 25 25 25 25 26 27 27 28 28 28 29 29 29 29 29 29 29 29
15 15 15 16 17 18 18 18 18 19 20 20 21 21 22 22 23 23 24 24 24 24 25 25 25 26 26 26 27 27 27 27 27 28 29 29 29 29 29 29 29 30 30
17 17 17 18 18 18 19 19 20 20 21 21 22 22 23 24 24 24 25 25 24 25 25 26 26 26 26 26 27 27 27 27 28 28 28 29 29 29 30 30 30 30 31
18 18 19 19 19 19 20 20 21 22 22 22 23 23 23 24 24 24 24 25 26 25 25 26 26 26 27 27 27 28 28 28 29 28 29 29 30 30 31 31 31 32 32
19 20 20 20 21 21 21 21 22 23 22 23 24 24 24 25 24 24 25 25 25 25 25 26 27 27 27 28 28 28 29 29 29 29 29 30 30 31 31 31 32 32 32
22 21 21 21 22 22 23 23 24 24 24 24 24 25 26 26 25 26 26 26 26 26 27 26 27 28 28 28 28 28 28 29 29 29 30 31 31 31 31 31 32 32 32
23 23 23 24 23 24 24 24 24 24 25 25 25 26 27 27 27 27 27 27 27 27 27 27 27 28 28 28 28 29 30 30 30 30 31 31 30 31 31 31 32 32 32
26 25 25 25 25 25 25 25 25 25 26 26 27 27 28 28 28 28 28 28 28 27 27 27 28 28 29 29 30 30 30 30 30 30 30 30 30 31 31 31 32 32 32

GEFSMA_500_meanwind_204.txt.gz
Wind_Speed
2 2 3 3 4 4 4 4 4 4 4 3 3 3 4 3 2 2 2 2 1 0 1 2 2 3 3 3 3 3 3 3 4 5 5 6 6 6 5 5 6 6 7
1 1 1 2 2 2 3 4 4 4 4 4 3 3 3 2 2 2 2 2 2 2 2 3 3 4 4 4 4 4 5 5 5 6 7 7 7 7 7 7 6 7 7
1 0 1 2 2 3 3 4 4 4 4 4 3 3 3 2 2 2 2 3 3 3 3 4 4 4 4 5 5 5 6 6 6 7 8 8 9 9 9 9 9 8 8
1 1 1 2 3 4 4 4 5 5 5 5 4 4 4 4 3 3 3 3 4 4 4 5 5 5 6 6 5 6 6 7 7 8 8 9 9 9 10 10 10 10 10
2 2 1 2 2 3 4 5 6 6 5 6 6 6 5 5 5 5 4 5 5 6 6 6 6 6 6 7 7 7 8 8 8 8 9 9 9 9 10 10 11 11 11
4 3 2 2 2 3 4 5 6 6 7 7 7 7 6 6 6 6 6 6 6 7 7 7 7 7 8 8 9 9 10 10 10 10 10 10 10 10 10 11 11 11 12
4 3 3 3 3 3 4 5 6 6 7 7 7 7 7 7 7 7 7 8 8 8 8 9 9 9 10 10 10 10 11 11 11 11 12 11 11 12 12 13 13 13 13
5 4 3 3 3 4 4 5 6 7 7 7 8 8 8 9 9 9 8 9 9 9 9 10 11 11 12 12 12 12 12 12 12 12 13 13 13 13 13 14 14 14 14
6 6 5 4 4 4 5 5 6 7 7 8 9 9 9 9 10 10 10 10 10 10 11 11 12 12 13 13 13 13 14 14 14 14 14 15 15 15 15 15 15 15 16
6 6 5 5 4 5 5 6 6 7 7 8 9 10 10 10 10 10 11 11 12 12 12 13 13 14 14 14 14 15 15 16 16 16 16 16 17 17 17 17 17 18 18
7 7 6 5 5 6 6 6 6 7 8 8 8 9 10 11 11 12 12 12 13 13 13 14 14 14 14 15 15 16 16 16 17 17 17 17 18 18 18 19 19 20 20
7 7 7 6 6 6 6 6 6 7 8 8 9 10 11 11 12 12 12 13 13 14 14 14 15 15 15 16 15 16 16 17 17 17 18 19 19 19 19 20 20 20 21
8 8 7 8 7 7 7 7 8 8 8 9 10 10 11 12 13 13 14 14 15 15 15 15 15 16 16 16 16 17 17 17 17 18 19 19 19 20 20 20 21 21 22
9 8 8 8 8 8 8 8 9 9 10 10 10 11 12 13 14 14 15 15 16 16 16 16 17 17 17 17 18 18 18 19 19 19 19 20 20 20 21 22 22 22 23
10 9 9 9 9 9 9 10 10 10 10 11 12 13 13 14 15 16 16 17 17 17 17 18 18 18 19 19 19 20 21 21 21 21 21 21 22 22 22 23 23 24 24
11 11 11 11 11 10 10 11 11 11 12 13 13 14 15 16 16 17 17 18 18 18 19 19 20 20 21 21 21 22 22 22 22 22 22 23 23 23 24 24 25 25 25
13 12 12 12 12 12 12 13 13 13 13 14 15 15 16 16 16 17 17 18 18 19 19 20 21 22 22 22 23 23 24 24 23 23 24 24 24 24 25 25 25 26 26
14 14 13 13 13 13 14 14 15 15 15 15 16 16 16 17 17 17 18 19 20 20 21 22 23 24 24 24 25 25 24 25 25 25 25 25 26 26 26 26 26 26 26
16 16 15 15 15 15 15 15 16 16 17 17 18 18 18 18 19 20 20 21 22 22 23 23 24 25 25 26 26 26 26 25 26 26 26 26 26 25 25 26 26 26 26
18 18 17 17 17 17 17 17 18 18 18 18 19 19 19 20 20 21 22 22 23 24 24 25 25 26 26 27 27 26 26 27 27 27 27 27 27 27 27 27 27 27 27
20 20 19 19 19 19 19 19 19 19 20 20 20 21 21 21 21 23 23 24 25 25 26 26 26 26 26 27 26 27 28 28 28 27 28 28 28 28 29 28 28 28 28
21 21 22 22 22 21 21 22 22 22 22 23 23 22 23 23 23 24 25 26 26 26 26 27 27 27 27 27 27 27 28 28 28 28 28 29 29 29 29 29 28 28 28
22 23 24 24 24 24 24 24 24 24 24 25 25 26 26 25 25 25 26 26 27 27 27 27 27 27 27 27 28 28 28 28 28 28 28 28 29 29 29 28 28 28 28
25 25 25 25 25 26 26 26 26 26 26 27 28 28 28 28 28 27 28 28 28 28 28 28 28 28 28 29 29 29 29 29 28 28 28 28 28 29 29 29 29 29 29
27 28 27 27 27 27 27 27 27 28 28 29 29 28 29 28 28 28 29 29 30 29 28 29 29 29 29 29 29 29 29 28 28 29 29 29 29 29 30 30 30 30 30
30 30 30 29 28 28 28 28 28 29 29 30 29 28 29 29 30 30 30 30 30 29 29 29 29 29 28 29 29 29 29 29 29 30 30 30 30 30 31 31 31 31 31